TimeCDT,TemperatureF,Dew PointF,Humidity,Sea Level PressureIn,VisibilityMPH,Wind Direction,Wind SpeedMPH,Gust SpeedMPH,PrecipitationIn,Events,Conditions,WindDirDegrees,DateUTC
12:53 AM,30.0,21.9,72,30.12,10.0,NE,11.5,-,N/A,,Overcast,40,2012-11-02 05:53:00
1:53 AM,30.9,23.0,72,30.14,10.0,NE,6.9,-,N/A,,Overcast,40,2012-11-02 06:53:00
2:53 AM,30.9,23.0,72,30.14,10.0,NE,3.5,-,N/A,,Overcast,40,2012-11-02 07:53:00
3:53 AM,30.0,21.9,72,30.15,10.0,ENE,4.6,-,N/A,,Overcast,60,2012-11-02 08:53:00
4:53 AM,30.0,21.9,72,30.15,10.0,NE,5.8,-,N/A,,Overcast,40,2012-11-02 09:53:00
5:33 AM,26.6,21.2,80,30.11,10.0,NNE,3.5,-,N/A,,Scattered Clouds,30,2012-11-02 10:33:00
5:53 AM,26.1,19.9,78,30.16,10.0,NE,3.5,-,N/A,,Clear,40,2012-11-02 10:53:00
6:53 AM,25.0,21.0,85,30.17,10.0,NNE,4.6,-,N/A,,Clear,30,2012-11-02 11:53:00
7:53 AM,25.0,19.9,81,30.17,10.0,NE,6.9,-,N/A,,Clear,40,2012-11-02 12:53:00
8:53 AM,28.0,21.9,78,30.19,10.0,NE,5.8,-,N/A,,Clear,50,2012-11-02 13:53:00
9:53 AM,30.0,21.9,72,30.20,10.0,ENE,6.9,-,N/A,,Clear,70,2012-11-02 14:53:00
10:53 AM,32.0,21.0,64,30.22,10.0,East,4.6,-,N/A,,Clear,80,2012-11-02 15:53:00
11:53 AM,33.1,21.0,61,30.21,10.0,NE,3.5,-,N/A,,Clear,40,2012-11-02 16:53:00
12:53 PM,35.1,21.0,57,30.19,10.0,Calm,Calm,-,N/A,,Clear,0,2012-11-02 17:53:00
1:53 PM,37.9,19.9,48,30.19,10.0,Calm,Calm,-,N/A,,Clear,0,2012-11-02 18:53:00
2:53 PM,37.9,19.0,47,30.17,10.0,Calm,Calm,-,N/A,,Clear,0,2012-11-02 19:53:00
3:53 PM,37.9,19.0,47,30.18,10.0,Calm,Calm,-,N/A,,Mostly Cloudy,0,2012-11-02 20:53:00
4:53 PM,37.9,21.9,53,30.17,10.0,NNW,3.5,-,N/A,,Overcast,340,2012-11-02 21:53:00
5:53 PM,37.9,23.0,55,30.18,10.0,Calm,Calm,-,N/A,,Overcast,0,2012-11-02 22:53:00
6:53 PM,37.0,23.0,57,30.19,10.0,Calm,Calm,-,N/A,,Overcast,0,2012-11-02 23:53:00
7:53 PM,36.0,25.0,64,30.19,10.0,Calm,Calm,-,N/A,,Overcast,0,2012-11-03 00:53:00
8:53 PM,36.0,24.1,62,30.20,10.0,Calm,Calm,-,N/A,,Overcast,0,2012-11-03 01:53:00
9:53 PM,36.0,21.9,57,30.20,10.0,Calm,Calm,-,N/A,,Overcast,0,2012-11-03 02:53:00
10:53 PM,36.0,21.9,57,30.22,10.0,NE,3.5,-,N/A,,Overcast,40,2012-11-03 03:53:00
11:53 PM,35.1,23.0,61,30.21,10.0,ENE,6.9,-,N/A,,Overcast,60,2012-11-03 04:53:00